M I D A S
Marine Information and Data Acquisition System
Tripno 1098 of the Zeeleeuw from 2006-03-21 08:03:09 to 2006-03-21 13:01:36
Back to CruiseResearch ActivitiesStationsMapUnderway DataData graphs

EquipmentUnitsComments
TimeDGPSUTC
LatitudeDGPSDM.mWGS84
LongitudeDGPSDM.mWGS84
SpeedMeteo Stationm/sRelative wind speed
DirectionMeteo StationdegRelative wind direction
TemperatureMeteo Stationdeg CelciusAir temperature
PressureMeteo StationPaAtmospheric pressure
HumidityMeteo Station%Relative humidity
Missing or incorrect values are displayed as -999
Metereological data collected by the RV Zeeleeuw from 2006-03-21 07:48:32 to 2006-03-21 13:15:32
                                                                                    Next 1000 lines
Time Latitude Longitude Speed Direction Temperature Pressure Humidity
2006-03-21 07:48:41 51°13.6 2°56.095 -999 308 2.5 101130 63
2006-03-21 07:48:47 51°13.601 2°56.095 -999 312 2.5 101130 63
2006-03-21 07:48:51 51°13.602 2°56.095 -999 317 2.5 101140 62
2006-03-21 07:48:57 51°13.602 2°56.095 -999 313 2.5 101140 62
2006-03-21 07:49:01 51°13.602 2°56.096 -999 41 2.5 101130 62
2006-03-21 07:49:07 51°13.602 2°56.096 -999 306 2.5 101130 62
2006-03-21 07:49:12 51°13.601 2°56.095 -999 300 2.5 101140 62
2006-03-21 07:49:17 51°13.601 2°56.095 -999 314 2.5 101140 62
2006-03-21 07:49:21 51°13.601 2°56.095 -999 42 2.5 101130 62
2006-03-21 07:49:27 51°13.601 2°56.095 -999 340 2.5 101130 62
2006-03-21 07:49:32 51°13.601 2°56.095 -999 334 2.5 101140 62
2006-03-21 07:49:37 51°13.6 2°56.095 -999 315 2.5 101140 62
2006-03-21 07:49:42 51°13.6 2°56.095 -999 314 2.5 101140 62
2006-03-21 07:49:47 51°13.6 2°56.095 -999 311 2.5 101140 62
2006-03-21 07:49:52 51°13.599 2°56.095 -999 316 2.5 101140 62
2006-03-21 07:49:57 51°13.599 2°56.095 -999 314 2.5 101140 62
2006-03-21 07:50:01 51°13.599 2°56.095 -999 307 2.5 101140 62
2006-03-21 07:50:07 51°13.599 2°56.095 -999 319 2.5 101140 62
2006-03-21 07:50:12 51°13.599 2°56.095 -999 302 2.5 101140 62
2006-03-21 07:50:17 51°13.599 2°56.095 -999 326 2.5 101140 62
2006-03-21 07:50:21 51°13.599 2°56.095 -999 40 2.5 101140 62
2006-03-21 07:50:27 51°13.599 2°56.095 -999 331 2.5 101140 62
2006-03-21 07:50:32 51°13.599 2°56.095 -999 311 2.5 101140 63
2006-03-21 07:50:37 51°13.599 2°56.095 -999 43 2.5 101140 63
2006-03-21 07:50:41 51°13.599 2°56.095 -999 302 2.5 101140 63
2006-03-21 07:50:47 51°13.599 2°56.095 -999 316 2.5 101140 63
2006-03-21 07:50:52 51°13.599 2°56.095 -999 322 2.5 101140 63
2006-03-21 07:50:57 51°13.599 2°56.095 -999 304 2.5 101140 63
2006-03-21 07:51:02 51°13.599 2°56.095 -999 294 2.5 101140 63
2006-03-21 07:51:07 51°13.599 2°56.095 -999 330 2.5 101140 63
2006-03-21 07:51:12 51°13.599 2°56.095 -999 291 2.5 101140 63
2006-03-21 07:51:17 51°13.599 2°56.095 -999 292 2.5 101140 63
2006-03-21 07:51:21 51°13.599 2°56.095 -999 308 2.5 101130 63
2006-03-21 07:51:27 51°13.599 2°56.095 -999 295 2.5 101130 63
2006-03-21 07:51:32 51°13.599 2°56.095 -999 290 2.5 101150 63
2006-03-21 07:51:37 51°13.599 2°56.095 -999 308 2.5 101150 63
2006-03-21 07:51:41 51°13.599 2°56.095 -999 298 2.5 101140 63
2006-03-21 07:51:47 51°13.599 2°56.095 -999 317 2.5 101140 63
2006-03-21 07:51:51 51°13.599 2°56.095 -999 326 2.5 101140 63
2006-03-21 07:51:57 51°13.599 2°56.095 -999 285 2.5 101140 63
2006-03-21 07:52:01 51°13.599 2°56.095 -999 310 2.5 101140 62
2006-03-21 07:52:07 51°13.599 2°56.095 -999 347 2.5 101140 62
2006-03-21 07:52:12 51°13.599 2°56.095 -999 248 2.5 101140 62
2006-03-21 07:52:17 51°13.599 2°56.095 -999 41 2.5 101140 62
2006-03-21 07:52:21 51°13.599 2°56.095 -999 314 2.5 101140 62
2006-03-21 07:52:27 51°13.599 2°56.095 -999 326 2.5 101140 62
2006-03-21 07:52:31 51°13.599 2°56.095 -999 320 2.5 101140 62
2006-03-21 07:52:37 51°13.599 2°56.095 -999 315 2.5 101140 62
2006-03-21 07:52:41 51°13.599 2°56.095 -999 317 2.5 101140 62
2006-03-21 07:52:47 51°13.599 2°56.095 -999 302 2.5 101140 62
2006-03-21 07:52:52 51°13.599 2°56.095 -999 319 2.5 101140 62
2006-03-21 07:52:57 51°13.599 2°56.095 -999 318 2.5 101140 62
2006-03-21 07:53:01 51°13.599 2°56.095 -999 306 2.5 101140 62
2006-03-21 07:53:07 51°13.599 2°56.094 -999 308 2.5 101140 62
2006-03-21 07:53:12 51°13.599 2°56.094 -999 309 2.5 101150 62
2006-03-21 07:53:17 51°13.599 2°56.094 -999 315 2.5 101150 62
2006-03-21 07:53:21 51°13.599 2°56.094 -999 315 2.5 101150 62
2006-03-21 07:53:27 51°13.598 2°56.094 -999 315 2.5 101150 62
2006-03-21 07:53:32 51°13.598 2°56.094 -999 232 2.5 101150 62
2006-03-21 07:53:37 51°13.597 2°56.094 -999 233 2.5 101150 62
2006-03-21 07:53:41 51°13.597 2°56.094 -999 314 2.5 101140 62
2006-03-21 07:53:47 51°13.597 2°56.094 -999 321 2.5 101140 62
2006-03-21 07:53:52 51°13.597 2°56.094 -999 323 2.5 101140 62
2006-03-21 07:53:57 51°13.596 2°56.094 -999 241 2.5 101140 62
2006-03-21 07:54:01 51°13.596 2°56.094 -999 312 2.5 101140 62
2006-03-21 07:54:06 51°13.596 2°56.094 -999 297 2.5 101140 62
2006-03-21 07:54:11 51°13.596 2°56.094 -999 310 2.5 101140 62
2006-03-21 07:54:17 51°13.595 2°56.094 -999 307 2.5 101140 62
2006-03-21 07:54:21 51°13.595 2°56.094 -999 318 2.5 101140 62
2006-03-21 07:54:27 51°13.595 2°56.094 -999 306 2.5 101140 62
2006-03-21 07:54:32 51°13.595 2°56.094 -999 309 2.5 101140 62
2006-03-21 07:54:37 51°13.595 2°56.094 -999 275 2.5 101140 62
2006-03-21 07:54:41 51°13.595 2°56.094 -999 306 2.5 101140 62
2006-03-21 07:54:47 51°13.595 2°56.094 -999 290 2.5 101140 62
2006-03-21 07:54:52 51°13.595 2°56.094 -999 288 2.5 101140 62
2006-03-21 07:54:57 51°13.595 2°56.094 -999 302 2.5 101140 62
2006-03-21 07:55:02 51°13.595 2°56.094 -999 306 2.5 101150 62
2006-03-21 07:55:07 51°13.596 2°56.094 -999 243 2.5 101150 62
2006-03-21 07:55:12 51°13.596 2°56.094 -999 288 2.5 101140 62
2006-03-21 07:55:17 51°13.595 2°56.094 -999 316 2.5 101140 62
2006-03-21 07:55:22 51°13.595 2°56.094 -999 312 2.5 101140 62
2006-03-21 07:55:27 51°13.595 2°56.094 -999 314 2.5 101140 62
2006-03-21 07:55:31 51°13.595 2°56.094 -999 298 2.5 101140 62
2006-03-21 07:55:37 51°13.595 2°56.094 -999 300 2.5 101140 62
2006-03-21 07:55:41 51°13.595 2°56.093 -999 42 2.5 101140 62
2006-03-21 07:55:47 51°13.595 2°56.093 -999 321 2.5 101140 62
2006-03-21 07:55:52 51°13.595 2°56.093 -999 228 2.5 101140 62
2006-03-21 07:55:57 51°13.595 2°56.094 -999 308 2.5 101140 62
2006-03-21 07:56:01 51°13.595 2°56.094 -999 306 2.5 101140 62
2006-03-21 07:56:07 51°13.595 2°56.094 -999 292 2.5 101140 62
2006-03-21 07:56:11 51°13.595 2°56.095 -999 317 2.5 101140 62
2006-03-21 07:56:17 51°13.595 2°56.095 -999 305 2.5 101140 62
2006-03-21 07:56:21 51°13.595 2°56.095 -999 301 2.5 101140 62
2006-03-21 07:56:27 51°13.594 2°56.096 -999 43 2.5 101140 62
2006-03-21 07:56:32 51°13.594 2°56.096 -999 314 2.5 101150 62
2006-03-21 07:56:37 51°13.593 2°56.097 -999 319 2.5 101150 62
2006-03-21 07:56:41 51°13.593 2°56.097 -999 314 2.5 101140 62
2006-03-21 07:56:46 51°13.593 2°56.097 -999 314 2.5 101140 62
2006-03-21 07:56:52 51°13.593 2°56.097 -999 227 2.6 101150 62
2006-03-21 07:56:57 51°13.593 2°56.097 -999 43 2.6 101150 62
2006-03-21 07:57:01 51°13.593 2°56.097 -999 298 2.5 101150 62
2006-03-21 07:57:07 51°13.593 2°56.097 -999 288 2.5 101150 62
2006-03-21 07:57:11 51°13.592 2°56.097 -999 290 2.5 101140 62
2006-03-21 07:57:17 51°13.593 2°56.097 -999 283 2.5 101140 62
2006-03-21 07:57:22 51°13.593 2°56.097 -999 291 2.5 101150 62
2006-03-21 07:57:27 51°13.593 2°56.097 -999 305 2.5 101150 62
2006-03-21 07:57:32 51°13.592 2°56.097 -999 293 2.5 101150 62
2006-03-21 07:57:37 51°13.592 2°56.097 -999 308 2.5 101150 62
2006-03-21 07:57:41 51°13.592 2°56.098 -999 308 2.5 101150 62
2006-03-21 07:57:47 51°13.592 2°56.098 -999 289 2.5 101150 62
2006-03-21 07:57:52 51°13.592 2°56.098 -999 291 2.5 101140 62
2006-03-21 07:57:57 51°13.593 2°56.098 -999 300 2.5 101140 62
2006-03-21 07:58:01 51°13.593 2°56.098 -999 295 2.5 101150 62
2006-03-21 07:58:07 51°13.593 2°56.098 -999 314 2.5 101150 62
2006-03-21 07:58:12 51°13.593 2°56.098 -999 303 2.5 101150 62
2006-03-21 07:58:17 51°13.593 2°56.098 -999 306 2.5 101150 62
2006-03-21 07:58:22 51°13.593 2°56.098 -999 299 2.5 101140 62
2006-03-21 07:58:27 51°13.594 2°56.098 -999 314 2.5 101140 62
2006-03-21 07:58:32 51°13.594 2°56.098 -999 304 2.5 101140 62
2006-03-21 07:58:37 51°13.594 2°56.098 -999 309 2.5 101140 62
2006-03-21 07:58:42 51°13.594 2°56.098 -999 299 2.5 101140 62
2006-03-21 07:58:47 51°13.594 2°56.098 -999 229 2.5 101140 62
2006-03-21 07:58:52 51°13.594 2°56.098 -999 314 2.5 101140 63
2006-03-21 07:58:57 51°13.594 2°56.098 -999 313 2.5 101140 63
2006-03-21 07:59:02 51°13.594 2°56.098 -999 313 2.6 101140 63
2006-03-21 07:59:07 51°13.594 2°56.098 -999 314 2.6 101140 63
2006-03-21 07:59:12 51°13.594 2°56.098 -999 315 2.6 101150 63
2006-03-21 07:59:17 51°13.594 2°56.098 -999 315 2.6 101150 63
2006-03-21 07:59:21 51°13.595 2°56.098 -999 324 2.6 101140 63
2006-03-21 07:59:27 51°13.595 2°56.098 -999 315 2.6 101140 63
2006-03-21 07:59:31 51°13.595 2°56.098 -999 321 2.6 101140 62
2006-03-21 07:59:37 51°13.595 2°56.098 -999 308 2.6 101140 62
2006-03-21 07:59:41 51°13.595 2°56.098 -999 308 2.6 101140 62
2006-03-21 07:59:47 51°13.595 2°56.097 -999 303 2.6 101140 62
2006-03-21 07:59:52 51°13.595 2°56.097 -999 310 2.5 101140 62
2006-03-21 07:59:56 51°13.595 2°56.097 -999 232 2.5 101140 62
2006-03-21 08:00:01 51°13.595 2°56.097 -999 302 2.6 101140 63
2006-03-21 08:00:07 51°13.595 2°56.097 -999 308 2.6 101140 63
2006-03-21 08:00:12 51°13.595 2°56.097 -999 302 2.6 101150 63
2006-03-21 08:00:16 51°13.595 2°56.097 -999 291 2.6 101150 63
2006-03-21 08:00:21 51°13.595 2°56.097 -999 316 2.6 101150 63
2006-03-21 08:00:27 51°13.595 2°56.097 -999 299 2.6 101150 63
2006-03-21 08:00:32 51°13.596 2°56.097 -999 268 2.6 101140 63
2006-03-21 08:00:37 51°13.596 2°56.097 -999 273 2.6 101140 63
2006-03-21 08:00:41 51°13.596 2°56.097 -999 313 2.6 101140 63
2006-03-21 08:00:47 51°13.596 2°56.097 -999 313 2.6 101140 63
2006-03-21 08:00:51 51°13.596 2°56.097 -999 309 2.6 101150 63
2006-03-21 08:00:57 51°13.596 2°56.097 -999 291 2.6 101150 63
2006-03-21 08:01:02 51°13.596 2°56.097 -999 290 2.6 101140 63
2006-03-21 08:01:07 51°13.596 2°56.097 -999 313 2.6 101140 63
2006-03-21 08:01:12 51°13.596 2°56.097 -999 294 2.6 101150 63
2006-03-21 08:01:17 51°13.596 2°56.097 -999 291 2.6 101150 63
2006-03-21 08:01:21 51°13.596 2°56.097 -999 290 2.6 101140 63
2006-03-21 08:01:27 51°13.596 2°56.097 -999 319 2.6 101140 63
2006-03-21 08:01:31 51°13.596 2°56.097 -999 301 2.6 101150 63
2006-03-21 08:01:37 51°13.596 2°56.097 -999 284 2.6 101150 63
2006-03-21 08:01:42 51°13.596 2°56.097 -999 291 2.6 101150 63
2006-03-21 08:01:47 51°13.596 2°56.097 -999 303 2.6 101150 63
2006-03-21 08:01:52 51°13.596 2°56.097 -999 295 2.6 101150 63
2006-03-21 08:01:57 51°13.596 2°56.096 -999 302 2.6 101150 63
2006-03-21 08:02:01 51°13.596 2°56.096 -999 284 2.6 101150 63
2006-03-21 08:02:07 51°13.596 2°56.096 -999 285 2.6 101150 63
2006-03-21 08:02:12 51°13.596 2°56.096 -999 276 2.6 101150 62
2006-03-21 08:02:17 51°13.596 2°56.096 -999 296 2.6 101150 62
2006-03-21 08:02:22 51°13.596 2°56.096 -999 316 2.6 101140 62
2006-03-21 08:02:27 51°13.596 2°56.097 -999 232 2.6 101140 62
2006-03-21 08:02:32 51°13.596 2°56.097 -999 319 2.6 101140 62
2006-03-21 08:02:37 51°13.596 2°56.097 -999 313 2.6 101140 62
2006-03-21 08:02:42 51°13.596 2°56.096 -999 312 2.6 101150 62
2006-03-21 08:02:47 51°13.596 2°56.096 -999 325 2.6 101150 62
2006-03-21 08:02:52 51°13.596 2°56.096 -999 315 2.6 101150 62
2006-03-21 08:02:57 51°13.596 2°56.096 -999 301 2.6 101150 62
2006-03-21 08:03:02 51°13.596 2°56.096 -999 312 2.6 101140 62
2006-03-21 08:03:07 51°13.596 2°56.096 -999 337 2.6 101140 62
2006-03-21 08:03:12 51°13.596 2°56.095 -999 323 2.6 101140 62
2006-03-21 08:03:17 51°13.596 2°56.093 -999 274 2.6 101140 62
2006-03-21 08:03:21 51°13.597 2°56.091 -999 295 2.6 101150 62
2006-03-21 08:03:27 51°13.597 2°56.088 -999 280 2.6 101150 62
2006-03-21 08:03:31 51°13.598 2°56.086 -999 288 2.6 101140 62
2006-03-21 08:03:37 51°13.599 2°56.082 -999 305 2.6 101140 62
2006-03-21 08:03:41 51°13.6 2°56.079 -999 230 2.7 101150 62
2006-03-21 08:03:47 51°13.601 2°56.075 -999 324 2.7 101150 62
2006-03-21 08:03:52 51°13.602 2°56.071 -999 310 2.6 101150 62
2006-03-21 08:03:58 51°13.604 2°56.065 -999 287 2.6 101150 62
2006-03-21 08:04:02 51°13.605 2°56.062 -999 291 2.6 101150 62
2006-03-21 08:04:07 51°13.606 2°56.057 -999 331 2.6 101150 62
2006-03-21 08:04:12 51°13.607 2°56.052 -999 310 2.6 101150 62
2006-03-21 08:04:17 51°13.608 2°56.046 -999 308 2.6 101150 62
2006-03-21 08:04:22 51°13.61 2°56.041 -999 294 2.6 101150 62
2006-03-21 08:04:28 51°13.611 2°56.034 -999 332 2.6 101150 62
2006-03-21 08:04:32 51°13.613 2°56.029 -999 279 2.6 101160 62
2006-03-21 08:04:37 51°13.615 2°56.023 -999 321 2.6 101160 62
2006-03-21 08:04:42 51°13.617 2°56.016 -999 315 2.6 101150 62
2006-03-21 08:04:47 51°13.619 2°56.01 -999 250 2.6 101150 62
2006-03-21 08:04:52 51°13.621 2°56.003 -999 268 2.6 101150 62
2006-03-21 08:04:57 51°13.623 2°55.995 -999 288 2.6 101150 62
2006-03-21 08:05:02 51°13.625 2°55.988 -999 23 2.6 101150 62
2006-03-21 08:05:08 51°13.627 2°55.979 -999 271 2.6 101150 62
2006-03-21 08:05:12 51°13.629 2°55.972 -999 312 2.6 101150 62
2006-03-21 08:05:17 51°13.631 2°55.964 -999 39 2.6 101150 62
2006-03-21 08:05:22 51°13.633 2°55.956 -999 310 2.6 101160 62
2006-03-21 08:05:28 51°13.636 2°55.946 -999 302 2.6 101160 62
2006-03-21 08:05:32 51°13.638 2°55.939 -999 304 2.6 101160 62
2006-03-21 08:05:37 51°13.641 2°55.931 -999 293 2.6 101160 62
2006-03-21 08:05:42 51°13.643 2°55.923 -999 299 2.6 101150 62
2006-03-21 08:05:47 51°13.646 2°55.914 -999 312 2.6 101150 62
2006-03-21 08:05:52 51°13.649 2°55.906 -999 303 2.6 101150 62
2006-03-21 08:05:57 51°13.652 2°55.898 -999 278 2.6 101150 62
2006-03-21 08:06:02 51°13.654 2°55.889 -999 299 2.6 101160 62
2006-03-21 08:06:07 51°13.657 2°55.881 -999 262 2.6 101160 62
2006-03-21 08:06:12 51°13.66 2°55.874 -999 279 2.6 101160 62
2006-03-21 08:06:18 51°13.664 2°55.864 -999 260 2.6 101160 62
2006-03-21 08:06:22 51°13.667 2°55.857 -999 241 2.6 101150 62
2006-03-21 08:06:28 51°13.672 2°55.847 -999 246 2.6 101150 62
2006-03-21 08:06:32 51°13.675 2°55.841 -999 261 2.6 101150 62
2006-03-21 08:06:37 51°13.679 2°55.832 -999 267 2.6 101150 62
2006-03-21 08:06:42 51°13.683 2°55.823 -999 281 2.6 101150 62
2006-03-21 08:06:48 51°13.689 2°55.812 -999 270 2.6 101150 62
2006-03-21 08:06:52 51°13.692 2°55.805 -999 266 2.6 101150 62
2006-03-21 08:06:57 51°13.696 2°55.797 -999 263 2.6 101150 62
2006-03-21 08:07:02 51°13.7 2°55.788 -999 287 2.6 101160 62
2006-03-21 08:07:08 51°13.705 2°55.779 -999 292 2.6 101160 62
2006-03-21 08:07:12 51°13.708 2°55.772 -999 259 2.6 101150 62
2006-03-21 08:07:17 51°13.712 2°55.764 -999 252 2.6 101150 62
2006-03-21 08:07:22 51°13.715 2°55.757 -999 286 2.6 101150 63
2006-03-21 08:07:27 51°13.719 2°55.75 -999 281 2.6 101150 63
2006-03-21 08:07:32 51°13.721 2°55.744 -999 287 2.6 101150 63
2006-03-21 08:07:37 51°13.723 2°55.74 -999 287 2.6 101150 63
2006-03-21 08:07:42 51°13.725 2°55.736 -999 261 2.6 101150 63
2006-03-21 08:07:47 51°13.726 2°55.733 -999 291 2.6 101150 63
2006-03-21 08:07:52 51°13.726 2°55.732 -999 307 2.6 101140 63
2006-03-21 08:07:57 51°13.726 2°55.731 -999 346 2.6 101140 63
2006-03-21 08:08:02 51°13.726 2°55.731 -999 326 2.6 101160 63
2006-03-21 08:08:07 51°13.725 2°55.732 -999 318 2.6 101160 63
2006-03-21 08:08:12 51°13.725 2°55.734 -999 306 2.6 101150 63
2006-03-21 08:08:17 51°13.724 2°55.737 -999 305 2.6 101150 63
2006-03-21 08:08:22 51°13.724 2°55.74 -999 326 2.6 101150 63
2006-03-21 08:08:27 51°13.724 2°55.743 -999 341 2.6 101150 63
2006-03-21 08:08:32 51°13.723 2°55.746 -999 240 2.6 101140 63
2006-03-21 08:08:37 51°13.724 2°55.748 -999 353 2.6 101140 63
2006-03-21 08:08:42 51°13.724 2°55.75 -999 2 2.6 101160 63
2006-03-21 08:08:47 51°13.723 2°55.75 -999 358 2.6 101160 63
2006-03-21 08:08:52 51°13.723 2°55.75 -999 345 2.6 101150 63
2006-03-21 08:08:57 51°13.723 2°55.749 -999 336 2.6 101150 63
2006-03-21 08:09:02 51°13.723 2°55.747 -999 292 2.6 101150 63
2006-03-21 08:09:08 51°13.723 2°55.745 -999 241 2.6 101150 63
2006-03-21 08:09:12 51°13.722 2°55.742 -999 6 2.6 101150 63
2006-03-21 08:09:17 51°13.722 2°55.739 -999 300 2.6 101150 63
2006-03-21 08:09:22 51°13.721 2°55.734 -999 64 2.6 101150 63
2006-03-21 08:09:28 51°13.721 2°55.73 -999 347 2.6 101150 63
2006-03-21 08:09:32 51°13.721 2°55.726 -999 12 2.6 101150 63
2006-03-21 08:09:37 51°13.72 2°55.723 -999 10 2.6 101150 63
2006-03-21 08:09:42 51°13.72 2°55.72 -999 355 2.6 101140 63
2006-03-21 08:09:47 51°13.72 2°55.718 -999 356 2.6 101140 63
2006-03-21 08:09:53 51°13.72 2°55.716 -999 356 2.6 101150 63
2006-03-21 08:09:57 51°13.72 2°55.716 -999 29 2.6 101150 63
2006-03-21 08:10:02 51°13.72 2°55.716 -999 20 2.6 101150 63
2006-03-21 08:10:07 51°13.721 2°55.716 -999 30 2.6 101150 63
2006-03-21 08:10:12 51°13.721 2°55.717 -999 11 2.6 101150 63
2006-03-21 08:10:17 51°13.722 2°55.718 -999 20 2.6 101150 63
2006-03-21 08:10:22 51°13.724 2°55.719 -999 36 2.6 101150 63
2006-03-21 08:10:27 51°13.725 2°55.72 -999 27 2.6 101150 63
2006-03-21 08:10:32 51°13.727 2°55.721 -999 346 2.6 101140 63
2006-03-21 08:10:37 51°13.728 2°55.722 -999 13 2.6 101140 63
2006-03-21 08:10:42 51°13.729 2°55.722 -999 4 2.6 101150 63
2006-03-21 08:10:47 51°13.73 2°55.722 -999 27 2.6 101150 63
2006-03-21 08:10:52 51°13.73 2°55.721 -999 29 2.6 101140 63
2006-03-21 08:10:57 51°13.729 2°55.72 -999 42 2.6 101140 63
2006-03-21 08:11:02 51°13.728 2°55.719 -999 39 2.6 101150 63
2006-03-21 08:11:07 51°13.727 2°55.717 -999 39 2.6 101150 63
2006-03-21 08:11:12 51°13.725 2°55.715 -999 31 2.6 101150 63
2006-03-21 08:11:17 51°13.723 2°55.713 -999 19 2.6 101150 63
2006-03-21 08:11:22 51°13.721 2°55.712 -999 30 2.6 101140 63
2006-03-21 08:11:27 51°13.72 2°55.71 -999 25 2.6 101140 63
2006-03-21 08:11:32 51°13.72 2°55.709 -999 19 2.6 101150 63
2006-03-21 08:11:37 51°13.72 2°55.708 -999 44 2.6 101150 63
2006-03-21 08:11:42 51°13.72 2°55.707 -999 36 2.6 101150 63
2006-03-21 08:11:47 51°13.721 2°55.707 -999 54 2.6 101150 63
2006-03-21 08:11:52 51°13.723 2°55.706 -999 73 2.6 101150 63
2006-03-21 08:11:57 51°13.725 2°55.705 -999 94 2.6 101150 63
2006-03-21 08:12:02 51°13.727 2°55.704 -999 71 2.6 101150 63
2006-03-21 08:12:08 51°13.731 2°55.701 -999 44 2.6 101150 63
2006-03-21 08:12:12 51°13.735 2°55.699 -999 58 2.6 101140 63
2006-03-21 08:12:17 51°13.739 2°55.696 -999 57 2.6 101140 63
2006-03-21 08:12:22 51°13.744 2°55.692 -999 43 2.6 101140 63
2006-03-21 08:12:27 51°13.75 2°55.688 -999 51 2.6 101140 63
2006-03-21 08:12:32 51°13.756 2°55.683 -999 60 2.6 101140 63
2006-03-21 08:12:37 51°13.763 2°55.678 -999 47 2.6 101140 63
2006-03-21 08:12:42 51°13.77 2°55.673 -999 64 2.6 101150 63
2006-03-21 08:12:47 51°13.777 2°55.668 -999 42 2.6 101150 63
2006-03-21 08:12:52 51°13.785 2°55.662 -999 43 2.6 101150 63
2006-03-21 08:12:57 51°13.794 2°55.656 -999 19 2.6 101150 63
2006-03-21 08:13:02 51°13.803 2°55.649 -999 41 2.6 101140 63
2006-03-21 08:13:07 51°13.812 2°55.643 -999 50 2.6 101140 63
2006-03-21 08:13:12 51°13.821 2°55.637 -999 37 2.6 101140 63
2006-03-21 08:13:17 51°13.831 2°55.63 -999 35 2.6 101140 63
2006-03-21 08:13:22 51°13.841 2°55.623 -999 39 2.6 101150 63
2006-03-21 08:13:28 51°13.853 2°55.614 -999 53 2.6 101150 63
2006-03-21 08:13:32 51°13.861 2°55.608 -999 58 2.6 101150 63
2006-03-21 08:13:37 51°13.871 2°55.6 -999 57 2.6 101150 63
2006-03-21 08:13:42 51°13.881 2°55.593 -999 79 2.5 101150 63
2006-03-21 08:13:47 51°13.892 2°55.585 -999 53 2.5 101150 63
2006-03-21 08:13:52 51°13.903 2°55.577 -999 43 2.5 101140 63
2006-03-21 08:13:57 51°13.914 2°55.569 -999 53 2.5 101140 63
2006-03-21 08:14:02 51°13.925 2°55.561 -999 42 2.5 101140 63
2006-03-21 08:14:08 51°13.938 2°55.552 -999 51 2.5 101140 63
2006-03-21 08:14:12 51°13.947 2°55.546 -999 50 2.5 101140 63
2006-03-21 08:14:17 51°13.957 2°55.537 -999 60 2.5 101140 63
2006-03-21 08:14:22 51°13.968 2°55.529 -999 65 2.5 101140 63
2006-03-21 08:14:27 51°13.979 2°55.521 -999 58 2.5 101140 63
2006-03-21 08:14:32 51°13.99 2°55.512 -999 60 2.5 101140 63
2006-03-21 08:14:37 51°14.001 2°55.505 -999 55 2.5 101140 63
2006-03-21 08:14:42 51°14.013 2°55.498 -999 49 2.5 101130 63
2006-03-21 08:14:47 51°14.024 2°55.491 -999 54 2.5 101130 63
2006-03-21 08:14:52 51°14.035 2°55.484 -999 63 2.5 101140 63
2006-03-21 08:14:57 51°14.045 2°55.477 -999 57 2.5 101140 63
2006-03-21 08:15:02 51°14.055 2°55.47 -999 47 2.5 101130 63
2006-03-21 08:15:07 51°14.065 2°55.463 -999 64 2.5 101130 63
2006-03-21 08:15:13 51°14.076 2°55.455 -999 66 2.5 101130 63
2006-03-21 08:15:17 51°14.084 2°55.45 -999 62 2.5 101130 63
2006-03-21 08:15:22 51°14.095 2°55.442 -999 49 2.5 101140 64
2006-03-21 08:15:27 51°14.105 2°55.434 -999 65 2.5 101140 64
2006-03-21 08:15:32 51°14.116 2°55.426 -999 47 2.4 101130 64
2006-03-21 08:15:37 51°14.126 2°55.418 -999 51 2.4 101130 64
2006-03-21 08:15:42 51°14.137 2°55.409 -999 59 2.4 101140 63
2006-03-21 08:15:47 51°14.148 2°55.4 -999 67 2.4 101140 63
2006-03-21 08:15:52 51°14.159 2°55.391 -999 59 2.4 101140 64
2006-03-21 08:15:57 51°14.169 2°55.38 -999 54 2.4 101140 64
2006-03-21 08:16:02 51°14.18 2°55.37 -999 79 2.4 101140 64
2006-03-21 08:16:07 51°14.19 2°55.359 -999 71 2.4 101140 64
2006-03-21 08:16:12 51°14.201 2°55.348 -999 72 2.5 101140 65
2006-03-21 08:16:17 51°14.211 2°55.336 -999 76 2.5 101140 65
2006-03-21 08:16:23 51°14.223 2°55.32 -999 74 2.5 101140 65
2006-03-21 08:16:27 51°14.231 2°55.31 -999 73 2.5 101140 65
2006-03-21 08:16:32 51°14.24 2°55.296 -999 80 2.5 101130 65
2006-03-21 08:16:37 51°14.25 2°55.281 -999 97 2.5 101130 65
2006-03-21 08:16:42 51°14.258 2°55.266 -999 84 2.5 101130 66
2006-03-21 08:16:47 51°14.267 2°55.251 -999 84 2.5 101130 66
2006-03-21 08:16:52 51°14.275 2°55.235 -999 107 2.5 101140 66
2006-03-21 08:16:57 51°14.283 2°55.22 -999 100 2.5 101140 66
2006-03-21 08:17:02 51°14.29 2°55.205 -999 102 2.5 101140 67
2006-03-21 08:17:07 51°14.297 2°55.19 -999 89 2.5 101140 67
2006-03-21 08:17:12 51°14.304 2°55.175 -999 92 2.5 101140 68
2006-03-21 08:17:17 51°14.311 2°55.161 -999 104 2.5 101140 68
2006-03-21 08:17:22 51°14.317 2°55.146 -999 107 2.5 101150 68
2006-03-21 08:17:27 51°14.324 2°55.132 -999 103 2.5 101150 68
2006-03-21 08:17:32 51°14.33 2°55.119 -999 111 2.4 101140 68
2006-03-21 08:17:37 51°14.337 2°55.106 -999 106 2.4 101140 68
2006-03-21 08:17:42 51°14.343 2°55.093 -999 108 2.4 101140 68
2006-03-21 08:17:47 51°14.35 2°55.081 -999 54 2.4 101140 68
2006-03-21 08:17:52 51°14.357 2°55.068 -999 68 2.4 101150 68
2006-03-21 08:17:57 51°14.364 2°55.056 -999 91 2.4 101150 68
2006-03-21 08:18:02 51°14.37 2°55.044 -999 90 2.4 101150 68
2006-03-21 08:18:07 51°14.377 2°55.032 -999 87 2.4 101150 68
2006-03-21 08:18:11 51°14.383 2°55.021 -999 89 2.4 101150 68
2006-03-21 08:18:17 51°14.392 2°55.005 -999 90 2.4 101150 68
2006-03-21 08:18:22 51°14.4 2°54.991 -999 93 2.4 101150 68
2006-03-21 08:18:27 51°14.408 2°54.976 -999 83 2.4 101150 68
2006-03-21 08:18:32 51°14.417 2°54.961 -999 83 2.5 101140 68
2006-03-21 08:18:37 51°14.426 2°54.946 -999 82 2.5 101140 68
2006-03-21 08:18:41 51°14.434 2°54.935 -999 81 2.4 101130 69
2006-03-21 08:18:47 51°14.446 2°54.918 -999 80 2.4 101130 69
2006-03-21 08:18:52 51°14.456 2°54.904 -999 76 2.4 101140 69
2006-03-21 08:18:57 51°14.467 2°54.889 -999 74 2.4 101140 69
2006-03-21 08:19:02 51°14.478 2°54.875 -999 79 2.4 101130 69
2006-03-21 08:19:07 51°14.49 2°54.86 -999 72 2.4 101130 69
2006-03-21 08:19:12 51°14.502 2°54.846 -999 73 2.4 101130 69
2006-03-21 08:19:17 51°14.514 2°54.831 -999 78 2.4 101130 69
2006-03-21 08:19:21 51°14.524 2°54.82 -999 79 2.4 101120 69
2006-03-21 08:19:27 51°14.539 2°54.802 -999 78 2.4 101120 69
2006-03-21 08:19:32 51°14.551 2°54.786 -999 79 2.4 101120 70
2006-03-21 08:19:37 51°14.565 2°54.771 -999 68 2.4 101120 70
2006-03-21 08:19:41 51°14.575 2°54.759 -999 68 2.4 101110 69
2006-03-21 08:19:47 51°14.591 2°54.741 -999 73 2.4 101110 69
2006-03-21 08:19:51 51°14.602 2°54.728 -999 75 2.4 101110 69
2006-03-21 08:19:57 51°14.618 2°54.709 -999 67 2.4 101110 69
2006-03-21 08:20:02 51°14.632 2°54.693 -999 71 2.4 101120 69
2006-03-21 08:20:07 51°14.645 2°54.678 -999 66 2.4 101120 69
2006-03-21 08:20:12 51°14.66 2°54.662 -999 61 2.4 101110 69
2006-03-21 08:20:17 51°14.673 2°54.647 -999 69 2.4 101110 69
2006-03-21 08:20:22 51°14.687 2°54.631 -999 72 2.4 101110 70
2006-03-21 08:20:27 51°14.701 2°54.615 -999 73 2.4 101110 70
2006-03-21 08:20:32 51°14.715 2°54.599 -999 65 2.4 101120 70
2006-03-21 08:20:37 51°14.729 2°54.583 -999 62 2.4 101120 70
2006-03-21 08:20:41 51°14.74 2°54.57 -999 66 2.4 101110 70
2006-03-21 08:20:47 51°14.757 2°54.552 -999 68 2.4 101110 70
2006-03-21 08:20:52 51°14.772 2°54.535 -999 71 2.4 101110 69
2006-03-21 08:20:57 51°14.786 2°54.52 -999 73 2.4 101110 69
2006-03-21 08:21:01 51°14.797 2°54.506 -999 67 2.4 101110 70
2006-03-21 08:21:07 51°14.813 2°54.487 -999 65 2.4 101110 70
2006-03-21 08:21:12 51°14.827 2°54.471 -999 65 2.4 101110 69
2006-03-21 08:21:17 51°14.841 2°54.454 -999 73 2.4 101110 69
2006-03-21 08:21:21 51°14.853 2°54.441 -999 69 2.4 101110 69
2006-03-21 08:21:27 51°14.87 2°54.422 -999 70 2.4 101110 69
2006-03-21 08:21:32 51°14.884 2°54.406 -999 67 2.4 101120 70
2006-03-21 08:21:37 51°14.898 2°54.39 -999 64 2.4 101120 70
2006-03-21 08:21:41 51°14.909 2°54.378 -999 65 2.4 101110 70
2006-03-21 08:21:47 51°14.926 2°54.359 -999 56 2.4 101110 70
2006-03-21 08:21:52 51°14.941 2°54.343 -999 61 2.4 101120 70
2006-03-21 08:21:57 51°14.955 2°54.328 -999 58 2.4 101120 70
2006-03-21 08:22:01 51°14.966 2°54.316 -999 63 2.4 101110 70
2006-03-21 08:22:07 51°14.983 2°54.297 -999 62 2.4 101110 70
2006-03-21 08:22:11 51°14.995 2°54.285 -999 63 2.4 101120 70
2006-03-21 08:22:17 51°15.011 2°54.267 -999 64 2.4 101120 70
2006-03-21 08:22:21 51°15.023 2°54.254 -999 72 2.4 101100 70
2006-03-21 08:22:27 51°15.04 2°54.235 -999 67 2.4 101100 70
2006-03-21 08:22:32 51°15.053 2°54.22 -999 68 2.4 101100 69
2006-03-21 08:22:37 51°15.067 2°54.203 -999 69 2.4 101100 69
2006-03-21 08:22:42 51°15.082 2°54.187 -999 64 2.4 101100 68
2006-03-21 08:22:47 51°15.095 2°54.171 -999 73 2.4 101100 68
2006-03-21 08:22:51 51°15.106 2°54.158 -999 65 2.4 101090 68
2006-03-21 08:22:57 51°15.123 2°54.137 -999 70 2.4 101090 68
2006-03-21 08:23:02 51°15.138 2°54.122 -999 70 2.4 101100 67
2006-03-21 08:23:07 51°15.152 2°54.106 -999 72 2.4 101100 67
2006-03-21 08:23:12 51°15.167 2°54.091 -999 69 2.5 101100 67
2006-03-21 08:23:17 51°15.181 2°54.077 -999 67 2.5 101100 67
2006-03-21 08:23:21 51°15.193 2°54.065 -999 62 2.5 101100 68
2006-03-21 08:23:27 51°15.211 2°54.049 -999 59 2.5 101100 68
2006-03-21 08:23:32 51°15.226 2°54.035 -999 60 2.5 101110 67
2006-03-21 08:23:37 51°15.24 2°54.021 -999 62 2.5 101110 67
2006-03-21 08:23:42 51°15.255 2°54.007 -999 56 2.5 101100 67
2006-03-21 08:23:46 51°15.267 2°53.995 -999 57 2.5 101100 67
2006-03-21 08:23:52 51°15.285 2°53.978 -999 59 2.5 101100 68
2006-03-21 08:23:57 51°15.3 2°53.963 -999 55 2.5 101100 68
2006-03-21 08:24:01 51°15.312 2°53.951 -999 55 2.5 101110 67
2006-03-21 08:24:07 51°15.33 2°53.934 -999 52 2.5 101110 67
2006-03-21 08:24:12 51°15.344 2°53.921 -999 54 2.5 101110 67
2006-03-21 08:24:17 51°15.359 2°53.905 -999 57 2.5 101110 67
2006-03-21 08:24:22 51°15.373 2°53.891 -999 58 2.5 101110 66
2006-03-21 08:24:27 51°15.388 2°53.876 -999 52 2.5 101110 66
2006-03-21 08:24:32 51°15.402 2°53.862 -999 58 2.5 101090 66
2006-03-21 08:24:37 51°15.416 2°53.847 -999 62 2.5 101090 66
2006-03-21 08:24:42 51°15.431 2°53.832 -999 59 2.5 101100 66
2006-03-21 08:24:47 51°15.445 2°53.818 -999 62 2.5 101100 66
2006-03-21 08:24:52 51°15.46 2°53.803 -999 58 2.5 101100 66
2006-03-21 08:24:57 51°15.474 2°53.788 -999 58 2.5 101100 66
2006-03-21 08:25:02 51°15.489 2°53.774 -999 66 2.5 101090 66
2006-03-21 08:25:07 51°15.503 2°53.758 -999 59 2.5 101090 66
2006-03-21 08:25:11 51°15.515 2°53.747 -999 63 2.5 101080 66
2006-03-21 08:25:17 51°15.532 2°53.728 -999 61 2.5 101080 66
2006-03-21 08:25:21 51°15.544 2°53.717 -999 59 2.5 101090 66
2006-03-21 08:25:27 51°15.562 2°53.699 -999 61 2.5 101090 66
2006-03-21 08:25:32 51°15.576 2°53.685 -999 60 2.5 101090 65
2006-03-21 08:25:37 51°15.591 2°53.671 -999 59 2.5 101090 65
2006-03-21 08:25:41 51°15.603 2°53.659 -999 60 2.5 101110 65
2006-03-21 08:25:47 51°15.62 2°53.642 -999 60 2.5 101110 65
2006-03-21 08:25:52 51°15.636 2°53.626 -999 59 2.5 101100 64
2006-03-21 08:25:57 51°15.65 2°53.611 -999 55 2.5 101100 64
2006-03-21 08:26:01 51°15.662 2°53.599 -999 61 2.5 101100 65
2006-03-21 08:26:07 51°15.678 2°53.582 -999 63 2.5 101100 65
2006-03-21 08:26:12 51°15.693 2°53.566 -999 53 2.5 101090 64
2006-03-21 08:26:17 51°15.707 2°53.552 -999 54 2.5 101090 64
2006-03-21 08:26:21 51°15.718 2°53.54 -999 55 2.4 101110 65
2006-03-21 08:26:27 51°15.736 2°53.522 -999 54 2.4 101110 65
2006-03-21 08:26:32 51°15.75 2°53.506 -999 54 2.5 101100 65
2006-03-21 08:26:37 51°15.765 2°53.492 -999 59 2.5 101100 65
2006-03-21 08:26:42 51°15.78 2°53.476 -999 56 2.5 101110 65
2006-03-21 08:26:47 51°15.794 2°53.461 -999 64 2.5 101110 65
2006-03-21 08:26:52 51°15.808 2°53.447 -999 65 2.5 101090 66
2006-03-21 08:26:57 51°15.824 2°53.432 -999 51 2.5 101090 66
2006-03-21 08:27:01 51°15.835 2°53.42 -999 58 2.5 101080 65
2006-03-21 08:27:07 51°15.853 2°53.4 -999 54 2.5 101080 65
2006-03-21 08:27:12 51°15.866 2°53.387 -999 53 2.5 101090 65
2006-03-21 08:27:17 51°15.881 2°53.371 -999 57 2.5 101090 65
2006-03-21 08:27:22 51°15.895 2°53.357 -999 53 2.5 101080 65
2006-03-21 08:27:27 51°15.91 2°53.34 -999 61 2.5 101080 65
2006-03-21 08:27:32 51°15.924 2°53.326 -999 56 2.5 101060 65
2006-03-21 08:27:37 51°15.939 2°53.312 -999 55 2.5 101060 65
2006-03-21 08:27:42 51°15.953 2°53.298 -999 54 2.5 101080 65
2006-03-21 08:27:47 51°15.968 2°53.283 -999 57 2.5 101080 65
2006-03-21 08:27:52 51°15.982 2°53.269 -999 57 2.5 101080 64
2006-03-21 08:27:56 51°15.994 2°53.258 -999 61 2.5 101080 64
2006-03-21 08:28:02 51°16.013 2°53.241 -999 60 2.5 101090 64
2006-03-21 08:28:07 51°16.027 2°53.227 -999 54 2.5 101090 64
2006-03-21 08:28:12 51°16.043 2°53.213 -999 54 2.5 101070 64
2006-03-21 08:28:17 51°16.058 2°53.199 -999 52 2.5 101070 64
2006-03-21 08:28:21 51°16.069 2°53.189 -999 55 2.5 101080 64
2006-03-21 08:28:27 51°16.087 2°53.171 -999 52 2.5 101080 64
2006-03-21 08:28:32 51°16.102 2°53.157 -999 53 2.5 101100 64
2006-03-21 08:28:37 51°16.117 2°53.142 -999 57 2.5 101100 64
2006-03-21 08:28:42 51°16.132 2°53.129 -999 54 2.5 101100 65
2006-03-21 08:28:46 51°16.143 2°53.118 -999 55 2.5 101100 65
2006-03-21 08:28:51 51°16.158 2°53.104 -999 50 2.5 101080 64
2006-03-21 08:28:57 51°16.175 2°53.09 -999 50 2.5 101080 64
2006-03-21 08:29:02 51°16.191 2°53.076 -999 51 2.5 101090 64
2006-03-21 08:29:07 51°16.205 2°53.064 -999 52 2.5 101090 64
2006-03-21 08:29:12 51°16.221 2°53.052 -999 54 2.5 101100 64
2006-03-21 08:29:17 51°16.236 2°53.041 -999 49 2.5 101100 64
2006-03-21 08:29:21 51°16.248 2°53.031 -999 48 2.5 101090 64
2006-03-21 08:29:27 51°16.266 2°53.017 -999 54 2.5 101090 64
2006-03-21 08:29:32 51°16.282 2°53.005 -999 56 2.5 101080 63
2006-03-21 08:29:37 51°16.298 2°52.993 -999 60 2.5 101080 63
2006-03-21 08:29:42 51°16.313 2°52.982 -999 57 2.5 101090 64
2006-03-21 08:29:47 51°16.329 2°52.97 -999 57 2.5 101090 64
2006-03-21 08:29:51 51°16.341 2°52.96 -999 58 2.5 101090 64
2006-03-21 08:29:57 51°16.359 2°52.945 -999 58 2.5 101090 64
2006-03-21 08:30:01 51°16.371 2°52.935 -999 59 2.5 101080 64
2006-03-21 08:30:07 51°16.39 2°52.921 -999 57 2.5 101080 64
2006-03-21 08:30:12 51°16.404 2°52.908 -999 59 2.5 101090 65
2006-03-21 08:30:17 51°16.42 2°52.896 -999 62 2.5 101090 65
2006-03-21 08:30:22 51°16.435 2°52.884 -999 52 2.5 101070 64
2006-03-21 08:30:27 51°16.451 2°52.871 -999 53 2.5 101070 64
2006-03-21 08:30:32 51°16.466 2°52.859 -999 59 2.5 101090 65
2006-03-21 08:30:37 51°16.482 2°52.847 -999 50 2.5 101090 65
2006-03-21 08:30:42 51°16.497 2°52.836 -999 58 2.5 101080 66
2006-03-21 08:30:47 51°16.514 2°52.824 -999 51 2.5 101080 66
2006-03-21 08:30:52 51°16.53 2°52.812 -999 60 2.5 101090 66
2006-03-21 08:30:57 51°16.545 2°52.8 -999 55 2.5 101090 66
2006-03-21 08:31:01 51°16.557 2°52.79 -999 57 2.5 101090 65
2006-03-21 08:31:07 51°16.576 2°52.776 -999 56 2.5 101090 65
2006-03-21 08:31:11 51°16.588 2°52.767 -999 49 2.6 101080 66
2006-03-21 08:31:17 51°16.606 2°52.756 -999 54 2.6 101080 66
2006-03-21 08:31:22 51°16.622 2°52.746 -999 53 2.5 101090 66
2006-03-21 08:31:27 51°16.638 2°52.736 -999 51 2.5 101090 66
2006-03-21 08:31:32 51°16.655 2°52.725 -999 55 2.6 101080 65
2006-03-21 08:31:37 51°16.67 2°52.716 -999 51 2.6 101080 65
2006-03-21 08:31:42 51°16.686 2°52.707 -999 51 2.5 101090 65
2006-03-21 08:31:47 51°16.701 2°52.697 -999 50 2.5 101090 65
2006-03-21 08:31:51 51°16.714 2°52.689 -999 50 2.6 101080 66
2006-03-21 08:31:57 51°16.733 2°52.678 -999 53 2.6 101080 66
2006-03-21 08:32:02 51°16.75 2°52.669 -999 51 2.5 101080 65
2006-03-21 08:32:07 51°16.766 2°52.66 -999 49 2.5 101080 65
2006-03-21 08:32:12 51°16.782 2°52.651 -999 53 2.5 101080 65
2006-03-21 08:32:17 51°16.799 2°52.642 -999 53 2.5 101080 65
2006-03-21 08:32:22 51°16.815 2°52.633 -999 55 2.6 101090 65
2006-03-21 08:32:27 51°16.831 2°52.625 -999 54 2.6 101090 65
2006-03-21 08:32:32 51°16.848 2°52.615 -999 55 2.5 101080 65
2006-03-21 08:32:37 51°16.864 2°52.606 -999 52 2.5 101080 65
2006-03-21 08:32:41 51°16.877 2°52.599 -999 56 2.5 101070 64
2006-03-21 08:32:47 51°16.896 2°52.588 -999 52 2.5 101070 64
2006-03-21 08:32:52 51°16.913 2°52.579 -999 56 2.5 101080 63
2006-03-21 08:32:57 51°16.93 2°52.572 -999 53 2.5 101080 63
2006-03-21 08:33:01 51°16.944 2°52.566 -999 53 2.5 101090 63
2006-03-21 08:33:07 51°16.964 2°52.557 -999 53 2.5 101090 63
2006-03-21 08:33:12 51°16.98 2°52.551 -999 50 2.5 101090 63
2006-03-21 08:33:17 51°16.997 2°52.543 -999 56 2.5 101090 63
2006-03-21 08:33:21 51°17.01 2°52.538 -999 52 2.5 101090 63
2006-03-21 08:33:27 51°17.028 2°52.53 -999 53 2.5 101090 63
2006-03-21 08:33:32 51°17.045 2°52.524 -999 53 2.5 101080 62
2006-03-21 08:33:37 51°17.061 2°52.518 -999 51 2.5 101080 62
2006-03-21 08:33:42 51°17.077 2°52.511 -999 54 2.5 101090 63
2006-03-21 08:33:47 51°17.094 2°52.505 -999 46 2.5 101090 63
2006-03-21 08:33:51 51°17.107 2°52.499 -999 51 2.5 101090 63
2006-03-21 08:33:57 51°17.127 2°52.491 -999 53 2.5 101090 63
2006-03-21 08:34:02 51°17.143 2°52.485 -999 53 2.5 101100 63
2006-03-21 08:34:07 51°17.16 2°52.477 -999 56 2.5 101100 63
2006-03-21 08:34:12 51°17.177 2°52.471 -999 49 2.5 101090 64
2006-03-21 08:34:17 51°17.193 2°52.464 -999 54 2.5 101090 64
2006-03-21 08:34:22 51°17.209 2°52.458 -999 58 2.5 101090 64
2006-03-21 08:34:27 51°17.226 2°52.451 -999 57 2.5 101090 64
2006-03-21 08:34:32 51°17.242 2°52.445 -999 51 2.5 101090 64
2006-03-21 08:34:37 51°17.258 2°52.44 -999 53 2.5 101090 64
2006-03-21 08:34:42 51°17.276 2°52.434 -999 55 2.5 101090 63
2006-03-21 08:34:47 51°17.292 2°52.428 -999 58 2.5 101090 63
2006-03-21 08:34:52 51°17.308 2°52.424 -999 52 2.5 101080 63
2006-03-21 08:34:57 51°17.324 2°52.419 -999 50 2.5 101080 63
2006-03-21 08:35:01 51°17.338 2°52.416 -999 48 2.5 101090 63
2006-03-21 08:35:07 51°17.358 2°52.412 -999 47 2.5 101090 63
2006-03-21 08:35:12 51°17.374 2°52.41 -999 53 2.5 101100 64
2006-03-21 08:35:17 51°17.392 2°52.408 -999 42 2.5 101100 64
2006-03-21 08:35:21 51°17.405 2°52.406 -999 40 2.5 101100 64
2006-03-21 08:35:27 51°17.425 2°52.404 -999 44 2.5 101100 64
2006-03-21 08:35:32 51°17.441 2°52.402 -999 46 2.5 101100 65
2006-03-21 08:35:37 51°17.459 2°52.401 -999 45 2.5 101100 65
2006-03-21 08:35:41 51°17.472 2°52.399 -999 45 2.5 101100 65
2006-03-21 08:35:47 51°17.492 2°52.398 -999 41 2.5 101100 65
2006-03-21 08:35:52 51°17.509 2°52.396 -999 49 2.5 101090 64
2006-03-21 08:35:57 51°17.526 2°52.395 -999 47 2.5 101090 64
2006-03-21 08:36:01 51°17.54 2°52.393 -999 44 2.5 101080 64
2006-03-21 08:36:07 51°17.558 2°52.391 -999 52 2.5 101080 64
2006-03-21 08:36:12 51°17.576 2°52.39 -999 48 2.5 101080 64
2006-03-21 08:36:16 51°17.589 2°52.388 -999 50 2.5 101080 64
2006-03-21 08:36:22 51°17.609 2°52.386 -999 48 2.5 101080 64
2006-03-21 08:36:27 51°17.626 2°52.386 -999 47 2.5 101080 64
2006-03-21 08:36:32 51°17.643 2°52.385 -999 47 2.5 101070 64
2006-03-21 08:36:37 51°17.658 2°52.385 -999 49 2.5 101070 64
2006-03-21 08:36:42 51°17.676 2°52.386 -999 49 2.5 101080 64
2006-03-21 08:36:47 51°17.691 2°52.387 -999 44 2.5 101080 64
2006-03-21 08:36:52 51°17.708 2°52.388 -999 50 2.6 101100 64
2006-03-21 08:36:57 51°17.725 2°52.39 -999 44 2.6 101100 64
2006-03-21 08:37:02 51°17.742 2°52.391 -999 41 2.5 101090 64
2006-03-21 08:37:06 51°17.754 2°52.392 -999 40 2.5 101090 64
2006-03-21 08:37:12 51°17.774 2°52.393 -999 43 2.5 101100 64
2006-03-21 08:37:17 51°17.792 2°52.394 -999 48 2.5 101100 64
2006-03-21 08:37:22 51°17.808 2°52.395 -999 43 2.5 101080 64
2006-03-21 08:37:27 51°17.824 2°52.397 -999 45 2.5 101080 64
2006-03-21 08:37:32 51°17.841 2°52.399 -999 45 2.6 101090 64
2006-03-21 08:37:37 51°17.858 2°52.401 -999 40 2.6 101090 64
2006-03-21 08:37:41 51°17.871 2°52.404 -999 38 2.5 101070 64
2006-03-21 08:37:47 51°17.89 2°52.407 -999 45 2.5 101070 64
2006-03-21 08:37:52 51°17.907 2°52.41 -999 37 2.6 101090 64
2006-03-21 08:37:57 51°17.923 2°52.414 -999 44 2.6 101090 64
2006-03-21 08:38:02 51°17.938 2°52.417 -999 43 2.6 101090 65
2006-03-21 08:38:07 51°17.955 2°52.42 -999 36 2.6 101090 65
2006-03-21 08:38:12 51°17.971 2°52.423 -999 37 2.6 101090 65
2006-03-21 08:38:17 51°17.988 2°52.426 -999 39 2.6 101090 65
2006-03-21 08:38:21 51°18.001 2°52.428 -999 41 2.5 101100 65
2006-03-21 08:38:27 51°18.019 2°52.431 -999 44 2.5 101100 65
2006-03-21 08:38:32 51°18.036 2°52.434 -999 44 2.6 101080 65
2006-03-21 08:38:37 51°18.052 2°52.437 -999 42 2.6 101080 65
2006-03-21 08:38:41 51°18.066 2°52.439 -999 42 2.6 101090 65
2006-03-21 08:38:47 51°18.084 2°52.442 -999 37 2.6 101090 65
2006-03-21 08:38:52 51°18.1 2°52.446 -999 42 2.5 101080 64
2006-03-21 08:38:57 51°18.117 2°52.451 -999 38 2.5 101080 64
2006-03-21 08:39:02 51°18.132 2°52.455 -999 31 2.5 101070 64
2006-03-21 08:39:07 51°18.148 2°52.46 -999 38 2.5 101070 64
2006-03-21 08:39:12 51°18.164 2°52.464 -999 41 2.6 101090 64
2006-03-21 08:39:17 51°18.18 2°52.47 -999 38 2.6 101090 64
2006-03-21 08:39:21 51°18.193 2°52.474 -999 37 2.6 101080 64
2006-03-21 08:39:27 51°18.212 2°52.479 -999 41 2.6 101080 64
2006-03-21 08:39:32 51°18.228 2°52.485 -999 40 2.6 101090 64
2006-03-21 08:39:36 51°18.24 2°52.488 -999 39 2.6 101090 64
2006-03-21 08:39:42 51°18.259 2°52.495 -999 40 2.6 101050 64
2006-03-21 08:39:47 51°18.276 2°52.5 -999 38 2.6 101050 64
2006-03-21 08:39:52 51°18.291 2°52.504 -999 32 2.6 101090 64
2006-03-21 08:39:57 51°18.306 2°52.509 -999 37 2.6 101090 64
2006-03-21 08:40:01 51°18.319 2°52.514 -999 41 2.6 101080 64
2006-03-21 08:40:07 51°18.339 2°52.52 -999 39 2.6 101080 64
2006-03-21 08:40:12 51°18.353 2°52.525 -999 39 2.6 101080 64
2006-03-21 08:40:17 51°18.369 2°52.532 -999 35 2.6 101080 64
2006-03-21 08:40:21 51°18.381 2°52.536 -999 37 2.6 101080 64
2006-03-21 08:40:27 51°18.4 2°52.544 -999 33 2.6 101080 64
2006-03-21 08:40:32 51°18.415 2°52.551 -999 37 2.5 101080 63
2006-03-21 08:40:37 51°18.431 2°52.558 -999 31 2.5 101080 63
2006-03-21 08:40:42 51°18.447 2°52.565 -999 41 2.5 101090 63
2006-03-21 08:40:47 51°18.462 2°52.572 -999 36 2.5 101090 63
2006-03-21 08:40:52 51°18.478 2°52.579 -999 34 2.5 101080 63
2006-03-21 08:40:57 51°18.493 2°52.585 -999 35 2.5 101080 63
2006-03-21 08:41:02 51°18.509 2°52.593 -999 37 2.6 101080 64
2006-03-21 08:41:07 51°18.525 2°52.599 -999 39 2.6 101080 64
2006-03-21 08:41:12 51°18.54 2°52.605 -999 42 2.6 101090 65
2006-03-21 08:41:17 51°18.555 2°52.613 -999 40 2.6 101090 65
2006-03-21 08:41:22 51°18.571 2°52.62 -999 34 2.6 101080 64
2006-03-21 08:41:27 51°18.587 2°52.626 -999 39 2.6 101080 64
2006-03-21 08:41:32 51°18.603 2°52.633 -999 41 2.6 101080 64
2006-03-21 08:41:37 51°18.619 2°52.639 -999 37 2.6 101080 64
2006-03-21 08:41:41 51°18.631 2°52.645 -999 40 2.6 101080 64
2006-03-21 08:41:47 51°18.65 2°52.654 -999 37 2.6 101080 64
2006-03-21 08:41:52 51°18.666 2°52.661 -999 34 2.6 101080 63
2006-03-21 08:41:57 51°18.681 2°52.668 -999 32 2.6 101080 63
2006-03-21 08:42:01 51°18.694 2°52.673 -999 35 2.6 101070 63
2006-03-21 08:42:07 51°18.712 2°52.682 -999 33 2.6 101070 63
2006-03-21 08:42:12 51°18.729 2°52.689 -999 33 2.6 101080 64
2006-03-21 08:42:17 51°18.744 2°52.697 -999 36 2.6 101080 64
2006-03-21 08:42:22 51°18.759 2°52.703 -999 37 2.6 101090 64
2006-03-21 08:42:27 51°18.775 2°52.71 -999 34 2.6 101090 64
2006-03-21 08:42:32 51°18.79 2°52.717 -999 34 2.6 101080 64
2006-03-21 08:42:37 51°18.806 2°52.724 -999 32 2.6 101080 64
2006-03-21 08:42:42 51°18.822 2°52.732 -999 32 2.6 101090 63
2006-03-21 08:42:47 51°18.837 2°52.741 -999 32 2.6 101090 63
2006-03-21 08:42:52 51°18.853 2°52.749 -999 33 2.6 101090 64
2006-03-21 08:42:57 51°18.868 2°52.757 -999 34 2.6 101090 64
2006-03-21 08:43:02 51°18.883 2°52.766 -999 27 2.6 101090 64
2006-03-21 08:43:07 51°18.898 2°52.774 -999 27 2.6 101090 64
2006-03-21 08:43:11 51°18.911 2°52.782 -999 33 2.6 101080 64
2006-03-21 08:43:17 51°18.929 2°52.793 -999 36 2.6 101080 64
2006-03-21 08:43:22 51°18.945 2°52.801 -999 32 2.6 101090 64
2006-03-21 08:43:27 51°18.959 2°52.809 -999 28 2.6 101090 64
2006-03-21 08:43:32 51°18.974 2°52.818 -999 33 2.6 101090 63
2006-03-21 08:43:37 51°18.99 2°52.827 -999 32 2.6 101090 63
2006-03-21 08:43:42 51°19.005 2°52.836 -999 32 2.6 101080 64
2006-03-21 08:43:47 51°19.02 2°52.844 -999 33 2.6 101080 64
2006-03-21 08:43:52 51°19.035 2°52.853 -999 29 2.6 101090 64
2006-03-21 08:43:57 51°19.05 2°52.864 -999 27 2.6 101090 64
2006-03-21 08:44:02 51°19.064 2°52.875 -999 31 2.6 101080 64
2006-03-21 08:44:07 51°19.078 2°52.888 -999 29 2.6 101080 64
2006-03-21 08:44:12 51°19.092 2°52.9 -999 27 2.6 101100 64
2006-03-21 08:44:17 51°19.105 2°52.914 -999 25 2.6 101100 64
2006-03-21 08:44:22 51°19.118 2°52.929 -999 30 2.6 101100 64
2006-03-21 08:44:26 51°19.128 2°52.94 -999 25 2.6 101100 64
2006-03-21 08:44:31 51°19.141 2°52.954 -999 26 2.6 101090 63
2006-03-21 08:44:37 51°19.156 2°52.973 -999 25 2.6 101090 63
2006-03-21 08:44:42 51°19.169 2°52.987 -999 24 2.6 101110 63
2006-03-21 08:44:47 51°19.182 2°53.004 -999 24 2.6 101110 63
2006-03-21 08:44:52 51°19.195 2°53.019 -999 20 2.6 101100 64
2006-03-21 08:44:57 51°19.208 2°53.034 -999 26 2.6 101100 64
2006-03-21 08:45:02 51°19.22 2°53.048 -999 23 2.6 101110 64
2006-03-21 08:45:07 51°19.233 2°53.062 -999 27 2.6 101110 64
2006-03-21 08:45:11 51°19.243 2°53.075 -999 26 2.6 101100 64
2006-03-21 08:45:17 51°19.259 2°53.093 -999 25 2.6 101100 64
2006-03-21 08:45:22 51°19.272 2°53.107 -999 25 2.6 101120 64
2006-03-21 08:45:27 51°19.285 2°53.122 -999 20 2.6 101120 64
2006-03-21 08:45:32 51°19.298 2°53.136 -999 21 2.6 101090 64
2006-03-21 08:45:37 51°19.311 2°53.151 -999 24 2.6 101090 64
2006-03-21 08:45:42 51°19.324 2°53.166 -999 21 2.6 101100 64
2006-03-21 08:45:47 51°19.337 2°53.18 -999 25 2.6 101100 64
2006-03-21 08:45:52 51°19.35 2°53.195 -999 25 2.6 101110 64
2006-03-21 08:45:57 51°19.362 2°53.211 -999 23 2.6 101110 64
2006-03-21 08:46:02 51°19.374 2°53.227 -999 22 2.7 101100 65
2006-03-21 08:46:07 51°19.387 2°53.244 -999 27 2.7 101100 65
2006-03-21 08:46:12 51°19.399 2°53.259 -999 22 2.6 101100 64
2006-03-21 08:46:17 51°19.411 2°53.274 -999 16 2.6 101100 64
2006-03-21 08:46:21 51°19.421 2°53.287 -999 21 2.6 101110 64
2006-03-21 08:46:27 51°19.436 2°53.305 -999 22 2.6 101110 64
2006-03-21 08:46:32 51°19.448 2°53.321 -999 22 2.6 101100 64
2006-03-21 08:46:37 51°19.46 2°53.336 -999 18 2.6 101100 64
2006-03-21 08:46:41 51°19.47 2°53.349 -999 23 2.6 101100 64
2006-03-21 08:46:47 51°19.485 2°53.369 -999 18 2.6 101100 64
2006-03-21 08:46:52 51°19.497 2°53.385 -999 17 2.6 101100 64
2006-03-21 08:46:57 51°19.51 2°53.399 -999 22 2.6 101100 64
2006-03-21 08:47:02 51°19.522 2°53.415 -999 21 2.7 101100 65
2006-03-21 08:47:07 51°19.535 2°53.431 -999 19 2.7 101100 65
2006-03-21 08:47:12 51°19.548 2°53.446 -999 19 2.6 101100 65
2006-03-21 08:47:17 51°19.559 2°53.46 -999 25 2.6 101100 65
2006-03-21 08:47:22 51°19.571 2°53.476 -999 25 2.6 101110 64
2006-03-21 08:47:27 51°19.584 2°53.492 -999 19 2.6 101110 64
2006-03-21 08:47:32 51°19.596 2°53.507 -999 22 2.6 101100 63
2006-03-21 08:47:37 51°19.609 2°53.524 -999 20 2.6 101100 63
2006-03-21 08:47:42 51°19.621 2°53.539 -999 22 2.6 101110 63
2006-03-21 08:47:47 51°19.633 2°53.554 -999 23 2.6 101110 63
2006-03-21 08:47:52 51°19.646 2°53.57 -999 22 2.6 101100 63
2006-03-21 08:47:57 51°19.658 2°53.585 -999 23 2.6 101100 63
2006-03-21 08:48:02 51°19.671 2°53.6 -999 19 2.6 101100 63
2006-03-21 08:48:07 51°19.683 2°53.616 -999 19 2.6 101100 63
2006-03-21 08:48:12 51°19.696 2°53.632 -999 21 2.6 101110 63
2006-03-21 08:48:17 51°19.708 2°53.647 -999 20 2.6 101110 63
2006-03-21 08:48:21 51°19.718 2°53.66 -999 19 2.6 101090 64
2006-03-21 08:48:27 51°19.733 2°53.679 -999 22 2.6 101090 64
2006-03-21 08:48:32 51°19.745 2°53.695 -999 22 2.6 101110 64
2006-03-21 08:48:37 51°19.758 2°53.712 -999 24 2.6 101110 64
2006-03-21 08:48:41 51°19.768 2°53.724 -999 22 2.6 101110 64
2006-03-21 08:48:47 51°19.784 2°53.743 -999 21 2.6 101110 64
2006-03-21 08:48:52 51°19.797 2°53.758 -999 24 2.6 101110 64
2006-03-21 08:48:57 51°19.809 2°53.773 -999 19 2.6 101110 64
2006-03-21 08:49:02 51°19.821 2°53.79 -999 17 2.6 101140 64
2006-03-21 08:49:06 51°19.831 2°53.802 -999 20 2.6 101140 64
2006-03-21 08:49:12 51°19.846 2°53.82 -999 19 2.6 101100 63
2006-03-21 08:49:17 51°19.859 2°53.837 -999 19 2.6 101100 63
2006-03-21 08:49:22 51°19.871 2°53.852 -999 11 2.6 101100 63
2006-03-21 08:49:27 51°19.884 2°53.868 -999 21 2.6 101100 63
2006-03-21 08:49:31 51°19.894 2°53.879 -999 20 2.6 101140 62
2006-03-21 08:49:37 51°19.909 2°53.898 -999 22 2.6 101140 62
2006-03-21 08:49:41 51°19.919 2°53.91 -999 22 2.6 101100 63
2006-03-21 08:49:47 51°19.935 2°53.928 -999 18 2.6 101100 63
2006-03-21 08:49:51 51°19.945 2°53.942 -999 19 2.6 101120 63
2006-03-21 08:49:57 51°19.96 2°53.96 -999 21 2.6 101120 63
2006-03-21 08:50:01 51°19.97 2°53.972 -999 17 2.6 101100 63
2006-03-21 08:50:07 51°19.985 2°53.991 -999 20 2.6 101100 63
2006-03-21 08:50:11 51°19.995 2°54.003 -999 19 2.6 101100 63
2006-03-21 08:50:17 51°20.011 2°54.022 -999 21 2.6 101100 63
2006-03-21 08:50:22 51°20.025 2°54.038 -999 22 2.6 101110 63
2006-03-21 08:50:27 51°20.036 2°54.053 -999 20 2.6 101110 63
2006-03-21 08:50:32 51°20.049 2°54.07 -999 22 2.6 101100 63
2006-03-21 08:50:37 51°20.062 2°54.085 -999 23 2.6 101100 63
2006-03-21 08:50:41 51°20.072 2°54.097 -999 26 2.6 101100 63
2006-03-21 08:50:47 51°20.088 2°54.116 -999 22 2.6 101100 63
2006-03-21 08:50:52 51°20.1 2°54.132 -999 22 2.6 101110 63
2006-03-21 08:50:57 51°20.113 2°54.148 -999 23 2.6 101110 63
2006-03-21 08:51:02 51°20.125 2°54.162 -999 23 2.6 101110 62
2006-03-21 08:51:07 51°20.137 2°54.176 -999 23 2.6 101110 62
2006-03-21 08:51:12 51°20.15 2°54.193 -999 15 2.6 101100 62
2006-03-21 08:51:17 51°20.162 2°54.208 -999 24 2.6 101100 62
2006-03-21 08:51:22 51°20.174 2°54.223 -999 28 2.6 101100 63
2006-03-21 08:51:27 51°20.188 2°54.239 -999 24 2.6 101100 63
2006-03-21 08:51:32 51°20.201 2°54.255 -999 29 2.6 101110 62
2006-03-21 08:51:37 51°20.214 2°54.27 -999 22 2.6 101110 62
2006-03-21 08:51:42 51°20.226 2°54.284 -999 19 2.6 101110 63
2006-03-21 08:51:47 51°20.239 2°54.3 -999 22 2.6 101110 63
2006-03-21 08:51:52 51°20.252 2°54.315 -999 20 2.6 101100 63
2006-03-21 08:51:57 51°20.265 2°54.331 -999 21 2.6 101100 63
2006-03-21 08:52:02 51°20.276 2°54.344 -999 22 2.7 101120 63
2006-03-21 08:52:07 51°20.289 2°54.36 -999 19 2.7 101120 63
2006-03-21 08:52:12 51°20.303 2°54.377 -999 24 2.6 101110 63
2006-03-21 08:52:17 51°20.315 2°54.391 -999 21 2.6 101110 63
2006-03-21 08:52:21 51°20.326 2°54.402 -999 23 2.6 101120 62
2006-03-21 08:52:27 51°20.342 2°54.418 -999 27 2.6 101120 62
2006-03-21 08:52:32 51°20.356 2°54.429 -999 24 2.7 101100 62
2006-03-21 08:52:37 51°20.37 2°54.438 -999 29 2.7 101100 62
2006-03-21 08:52:42 51°20.385 2°54.448 -999 27 2.6 101120 62
2006-03-21 08:52:47 51°20.401 2°54.456 -999 28 2.6 101120 62
2006-03-21 08:52:52 51°20.415 2°54.465 -999 31 2.6 101090 62
2006-03-21 08:52:57 51°20.432 2°54.473 -999 29 2.6 101090 62
2006-03-21 08:53:02 51°20.445 2°54.481 -999 28 2.7 101100 63
2006-03-21 08:53:07 51°20.462 2°54.491 -999 29 2.7 101100 63
2006-03-21 08:53:12 51°20.476 2°54.499 -999 32 2.7 101100 64
2006-03-21 08:53:17 51°20.493 2°54.508 -999 30 2.7 101100 64
2006-03-21 08:53:22 51°20.507 2°54.516 -999 30 2.7 101100 65
2006-03-21 08:53:27 51°20.522 2°54.524 -999 32 2.7 101100 65
2006-03-21 08:53:32 51°20.538 2°54.533 -999 34 2.7 101100 65
2006-03-21 08:53:37 51°20.555 2°54.543 -999 34 2.7 101100 65
2006-03-21 08:53:42 51°20.569 2°54.55 -999 33 2.7 101090 64
2006-03-21 08:53:47 51°20.584 2°54.557 -999 35 2.7 101090 64
2006-03-21 08:53:52 51°20.6 2°54.563 -999 37 2.7 101100 64
2006-03-21 08:53:57 51°20.616 2°54.567 -999 38 2.7 101100 64
2006-03-21 08:54:01 51°20.629 2°54.57 -999 35 2.7 101090 63
2006-03-21 08:54:07 51°20.649 2°54.573 -999 40 2.7 101090 63
2006-03-21 08:54:12 51°20.664 2°54.575 -999 39 2.7 101110 64
2006-03-21 08:54:17 51°20.682 2°54.577 -999 46 2.7 101110 64
2006-03-21 08:54:22 51°20.699 2°54.579 -999 40 2.6 101100 64
2006-03-21 08:54:27 51°20.716 2°54.58 -999 49 2.6 101100 64
2006-03-21 08:54:32 51°20.731 2°54.581 -999 45 2.7 101100 64
2006-03-21 08:54:37 51°20.747 2°54.583 -999 49 2.7 101100 64
2006-03-21 08:54:41 51°20.761 2°54.585 -999 48 2.6 101090 64
2006-03-21 08:54:47 51°20.781 2°54.587 -999 36 2.6 101090 64
2006-03-21 08:54:52 51°20.798 2°54.589 -999 42 2.7 101100 64
2006-03-21 08:54:57 51°20.815 2°54.591 -999 35 2.7 101100 64
2006-03-21 08:55:02 51°20.83 2°54.593 -999 40 2.6 101090 64
2006-03-21 08:55:07 51°20.847 2°54.596 -999 39 2.6 101090 64
2006-03-21 08:55:12 51°20.865 2°54.597 -999 34 2.7 101100 65
2006-03-21 08:55:17 51°20.881 2°54.6 -999 38 2.7 101100 65
2006-03-21 08:55:22 51°20.897 2°54.602 -999 38 2.7 101100 65
2006-03-21 08:55:27 51°20.914 2°54.604 -999 37 2.7 101100 65
2006-03-21 08:55:32 51°20.931 2°54.606 -999 40 2.7 101090 65
2006-03-21 08:55:37 51°20.948 2°54.609 -999 45 2.7 101090 65
2006-03-21 08:55:42 51°20.963 2°54.611 -999 45 2.7 101100 65
2006-03-21 08:55:47 51°20.982 2°54.614 -999 37 2.7 101100 65
2006-03-21 08:55:52 51°20.996 2°54.615 -999 32 2.6 101090 65
2006-03-21 08:55:57 51°21.013 2°54.617 -999 38 2.6 101090 65
2006-03-21 08:56:01 51°21.026 2°54.62 -999 36 2.6 101090 64
2006-03-21 08:56:07 51°21.045 2°54.622 -999 38 2.6 101090 64
2006-03-21 08:56:12 51°21.061 2°54.625 -999 43 2.7 101070 64
2006-03-21 08:56:17 51°21.078 2°54.627 -999 36 2.7 101070 64
2006-03-21 08:56:22 51°21.094 2°54.629 -999 40 2.7 101100 65
2006-03-21 08:56:27 51°21.111 2°54.631 -999 44 2.7 101100 65
2006-03-21 08:56:32 51°21.129 2°54.634 -999 42 2.6 101100 64
2006-03-21 08:56:37 51°21.145 2°54.636 -999 44 2.6 101100 64
2006-03-21 08:56:42 51°21.161 2°54.638 -999 43 2.7 101090 65
2006-03-21 08:56:47 51°21.179 2°54.641 -999 36 2.7 101090 65
2006-03-21 08:56:52 51°21.195 2°54.643 -999 40 2.6 101080 64
2006-03-21 08:56:57 51°21.211 2°54.646 -999 44 2.6 101080 64
2006-03-21 08:57:01 51°21.225 2°54.647 -999 43 2.7 101090 64
2006-03-21 08:57:07 51°21.244 2°54.65 -999 44 2.7 101090 64
2006-03-21 08:57:12 51°21.261 2°54.652 -999 44 2.7 101100 64
2006-03-21 08:57:17 51°21.278 2°54.655 -999 43 2.7 101100 64
2006-03-21 08:57:21 51°21.29 2°54.657 -999 41 2.6 101080 63
2006-03-21 08:57:27 51°21.311 2°54.66 -999 42 2.6 101080 63
2006-03-21 08:57:32 51°21.328 2°54.663 -999 40 2.6 101080 63
2006-03-21 08:57:37 51°21.343 2°54.665 -999 42 2.6 101080 63
2006-03-21 08:57:41 51°21.357 2°54.666 -999 39 2.6 101080 62
2006-03-21 08:57:47 51°21.377 2°54.669 -999 41 2.6 101080 62
2006-03-21 08:57:52 51°21.395 2°54.672 -999 38 2.6 101090 63
2006-03-21 08:57:57 51°21.41 2°54.674 -999 41 2.6 101090 63
2006-03-21 08:58:02 51°21.426 2°54.677 -999 40 2.6 101090 63
2006-03-21 08:58:07 51°21.444 2°54.68 -999 41 2.6 101090 63
2006-03-21 08:58:12 51°21.46 2°54.682 -999 38 2.6 101090 63
2006-03-21 08:58:17 51°21.477 2°54.685 -999 38 2.6 101090 63
2006-03-21 08:58:21 51°21.491 2°54.687 -999 37 2.6 101090 63
2006-03-21 08:58:27 51°21.511 2°54.691 -999 40 2.6 101090 63
2006-03-21 08:58:32 51°21.528 2°54.695 -999 45 2.6 101070 63
2006-03-21 08:58:37 51°21.546 2°54.697 -999 43 2.6 101070 63
2006-03-21 08:58:41 51°21.558 2°54.7 -999 41 2.6 101090 63
2006-03-21 08:58:47 51°21.578 2°54.704 -999 41 2.6 101090 63
2006-03-21 08:58:52 51°21.596 2°54.706 -999 38 2.6 101090 63
2006-03-21 08:58:57 51°21.611 2°54.709 -999 37 2.6 101090 63
2006-03-21 08:59:01 51°21.624 2°54.711 -999 44 2.6 101100 63
2006-03-21 08:59:07 51°21.646 2°54.714 -999 44 2.6 101100 63
2006-03-21 08:59:12 51°21.662 2°54.716 -999 41 2.6 101090 64
2006-03-21 08:59:17 51°21.679 2°54.719 -999 43 2.6 101090 64
2006-03-21 08:59:21 51°21.692 2°54.722 -999 47 2.6 101090 63
2006-03-21 08:59:27 51°21.713 2°54.726 -999 38 2.6 101090 63
2006-03-21 08:59:32 51°21.729 2°54.728 -999 46 2.6 101080 63
2006-03-21 08:59:37 51°21.746 2°54.731 -999 41 2.6 101080 63
2006-03-21 08:59:41 51°21.76 2°54.733 -999 43 2.6 101070 63
2006-03-21 08:59:47 51°21.779 2°54.737 -999 42 2.6 101070 63
2006-03-21 08:59:52 51°21.796 2°54.739 -999 40 2.6 101080 63
2006-03-21 08:59:57 51°21.812 2°54.742 -999 43 2.6 101080 63
2006-03-21 09:00:02 51°21.829 2°54.745 -999 43 2.6 101080 63
2006-03-21 09:00:07 51°21.845 2°54.748 -999 37 2.6 101080 63
2006-03-21 09:00:12 51°21.863 2°54.75 -999 39 2.6 101090 63
2006-03-21 09:00:17 51°21.879 2°54.753 -999 39 2.6 101090 63
2006-03-21 09:00:21 51°21.892 2°54.754 -999 38 2.6 101080 63
2006-03-21 09:00:27 51°21.912 2°54.758 -999 37 2.6 101080 63
2006-03-21 09:00:31 51°21.926 2°54.759 -999 38 2.6 101080 63
2006-03-21 09:00:37 51°21.946 2°54.763 -999 37 2.6 101080 63
2006-03-21 09:00:41 51°21.96 2°54.766 -999 40 2.6 101090 64
2006-03-21 09:00:47 51°21.979 2°54.769 -999 38 2.6 101090 64
2006-03-21 09:00:52 51°21.997 2°54.771 -999 37 2.6 101090 64
2006-03-21 09:00:57 51°22.013 2°54.774 -999 43 2.6 101090 64
2006-03-21 09:01:01 51°22.026 2°54.776 -999 47 2.6 101070 64
2006-03-21 09:01:07 51°22.047 2°54.779 -999 33 2.6 101070 64
2006-03-21 09:01:12 51°22.063 2°54.782 -999 37 2.6 101070 64
2006-03-21 09:01:17 51°22.08 2°54.785 -999 40 2.6 101070 64
2006-03-21 09:01:21 51°22.093 2°54.787 -999 44 2.6 101090 63
2006-03-21 09:01:27 51°22.112 2°54.789 -999 43 2.6 101090 63
2006-03-21 09:01:32 51°22.13 2°54.792 -999 41 2.6 101090 64
2006-03-21 09:01:37 51°22.147 2°54.795 -999 40 2.6 101090 64
2006-03-21 09:01:42 51°22.163 2°54.797 -999 41 2.6 101090 64
2006-03-21 09:01:47 51°22.181 2°54.8 -999 35 2.6 101090 64
2006-03-21 09:01:52 51°22.198 2°54.802 -999 36 2.6 101090 64
2006-03-21 09:01:57 51°22.214 2°54.805 -999 36 2.6 101090 64
2006-03-21 09:02:01 51°22.227 2°54.807 -999 36 2.6 101090 65
2006-03-21 09:02:07 51°22.248 2°54.81 -999 36 2.6 101090 65
2006-03-21 09:02:12 51°22.264 2°54.812 -999 39 2.6 101080 65
2006-03-21 09:02:17 51°22.28 2°54.814 -999 39 2.6 101080 65
2006-03-21 09:02:21 51°22.293 2°54.817 -999 38 2.6 101100 65
2006-03-21 09:02:27 51°22.314 2°54.82 -999 40 2.6 101100 65
2006-03-21 09:02:31 51°22.328 2°54.822 -999 37 2.6 101080 64
2006-03-21 09:02:37 51°22.347 2°54.825 -999 33 2.6 101080 64
2006-03-21 09:02:41 51°22.36 2°54.828 -999 37 2.6 101070 64
2006-03-21 09:02:47 51°22.38 2°54.831 -999 36 2.6 101070 64
2006-03-21 09:02:52 51°22.396 2°54.835 -999 39 2.6 101090 64
2006-03-21 09:02:57 51°22.413 2°54.837 -999 34 2.6 101090 64
2006-03-21 09:03:02 51°22.429 2°54.841 -999 33 2.6 101070 64
2006-03-21 09:03:07 51°22.444 2°54.845 -999 29 2.6 101070 64
2006-03-21 09:03:11 51°22.457 2°54.85 -999 26 2.6 101080 64
2006-03-21 09:03:17 51°22.476 2°54.859 -999 30 2.6 101080 64
2006-03-21 09:03:22 51°22.491 2°54.868 -999 28 2.6 101080 65
2006-03-21 09:03:27 51°22.507 2°54.879 -999 18 2.6 101080 65
2006-03-21 09:03:32 51°22.521 2°54.891 -999 18 2.7 101100 65
2006-03-21 09:03:37 51°22.533 2°54.902 -999 22 2.7 101100 65
2006-03-21 09:03:41 51°22.544 2°54.913 -999 21 2.7 101100 65
2006-03-21 09:03:47 51°22.56 2°54.931 -999 20 2.7 101100 65
2006-03-21 09:03:52 51°22.573 2°54.946 -999 16 2.7 101110 65
2006-03-21 09:03:57 51°22.585 2°54.962 -999 19 2.7 101110 65
2006-03-21 09:04:02 51°22.596 2°54.977 -999 14 2.7 101110 65
2006-03-21 09:04:07 51°22.609 2°54.995 -999 21 2.7 101110 65
2006-03-21 09:04:12 51°22.62 2°55.012 -999 16 2.7 101110 65
2006-03-21 09:04:17 51°22.632 2°55.03 -999 14 2.7 101110 65
2006-03-21 09:04:21 51°22.641 2°55.045 -999 14 2.7 101120 66
2006-03-21 09:04:27 51°22.654 2°55.066 -999 14 2.7 101120 66
2006-03-21 09:04:32 51°22.664 2°55.084 -999 16 2.7 101110 66
2006-03-21 09:04:37 51°22.676 2°55.105 -999 10 2.7 101110 66
2006-03-21 09:04:42 51°22.686 2°55.121 -999 9 2.7 101130 66
2006-03-21 09:04:47 51°22.695 2°55.138 -999 12 2.7 101130 66
2006-03-21 09:04:52 51°22.706 2°55.158 -999 15 2.7 101130 65
2006-03-21 09:04:57 51°22.718 2°55.176 -999 14 2.7 101130 65
2006-03-21 09:05:02 51°22.728 2°55.193 -999 10 2.7 101110 65
2006-03-21 09:05:07 51°22.738 2°55.212 -999 16 2.7 101110 65
2006-03-21 09:05:12 51°22.75 2°55.23 -999 16 2.7 101120 65
2006-03-21 09:05:17 51°22.761 2°55.247 -999 14 2.7 101120 65
2006-03-21 09:05:21 51°22.77 2°55.262 -999 14 2.7 101120 65
2006-03-21 09:05:27 51°22.783 2°55.284 -999 15 2.7 101120 65
2006-03-21 09:05:32 51°22.794 2°55.303 -999 15 2.7 101110 65
2006-03-21 09:05:37 51°22.805 2°55.321 -999 16 2.7 101110 65
2006-03-21 09:05:42 51°22.816 2°55.342 -999 18 2.7 101130 65
2006-03-21 09:05:47 51°22.827 2°55.359 -999 17 2.7 101130 65
2006-03-21 09:05:52 51°22.837 2°55.378 -999 13 2.7 101130 66
2006-03-21 09:05:57 51°22.848 2°55.396 -999 19 2.7 101130 66
2006-03-21 09:06:02 51°22.859 2°55.415 -999 18 2.7 101120 66
2006-03-21 09:06:07 51°22.87 2°55.433 -999 14 2.7 101120 66
2006-03-21 09:06:12 51°22.881 2°55.451 -999 15 2.7 101140 65
2006-03-21 09:06:17 51°22.892 2°55.469 -999 22 2.7 101140 65
2006-03-21 09:06:21 51°22.901 2°55.484 -999 16 2.7 101140 65
2006-03-21 09:06:27 51°22.914 2°55.507 -999 14 2.7 101140 65
2006-03-21 09:06:32 51°22.925 2°55.526 -999 16 2.7 101130 66
2006-03-21 09:06:37 51°22.935 2°55.543 -999 18 2.7 101130 66
2006-03-21 09:06:42 51°22.947 2°55.563 -999 9 2.7 101120 65
2006-03-21 09:06:47 51°22.957 2°55.581 -999 13 2.7 101120 65
2006-03-21 09:06:52 51°22.968 2°55.601 -999 13 2.7 101130 65
2006-03-21 09:06:57 51°22.979 2°55.62 -999 13 2.7 101130 65
2006-03-21 09:07:01 51°22.987 2°55.636 -999 15 2.7 101130 66
2006-03-21 09:07:07 51°23 2°55.656 -999 13 2.7 101130 66
2006-03-21 09:07:12 51°23.011 2°55.674 -999 13 2.7 101130 65
2006-03-21 09:07:17 51°23.022 2°55.693 -999 18 2.7 101130 65
2006-03-21 09:07:22 51°23.033 2°55.712 -999 13 2.7 101120 65
2006-03-21 09:07:27 51°23.044 2°55.729 -999 15 2.7 101120 65
2006-03-21 09:07:32 51°23.055 2°55.747 -999 7 2.7 101130 65
2006-03-21 09:07:37 51°23.065 2°55.766 -999 18 2.7 101130 65
2006-03-21 09:07:42 51°23.076 2°55.785 -999 19 2.7 101130 65
2006-03-21 09:07:47 51°23.087 2°55.804 -999 13 2.7 101130 65
2006-03-21 09:07:52 51°23.097 2°55.822 -999 13 2.7 101140 65
2006-03-21 09:07:57 51°23.108 2°55.841 -999 13 2.7 101140 65
2006-03-21 09:08:02 51°23.118 2°55.859 -999 14 2.7 101130 66
2006-03-21 09:08:07 51°23.13 2°55.878 -999 14 2.7 101130 66
2006-03-21 09:08:12 51°23.14 2°55.896 -999 15 2.7 101140 66
2006-03-21 09:08:17 51°23.151 2°55.914 -999 17 2.7 101140 66
2006-03-21 09:08:22 51°23.162 2°55.932 -999 21 2.7 101130 66
2006-03-21 09:08:27 51°23.174 2°55.952 -999 14 2.7 101130 66
2006-03-21 09:08:32 51°23.184 2°55.97 -999 18 2.7 101130 66
2006-03-21 09:08:37 51°23.196 2°55.989 -999 10 2.7 101130 66
2006-03-21 09:08:41 51°23.205 2°56.004 -999 14 2.8 101120 66
2006-03-21 09:08:47 51°23.218 2°56.025 -999 11 2.8 101120 66
2006-03-21 09:08:52 51°23.228 2°56.044 -999 15 2.7 101110 65
2006-03-21 09:08:57 51°23.24 2°56.064 -999 16 2.7 101110 65
2006-03-21 09:09:01 51°23.249 2°56.078 -999 14 2.7 101120 65
2006-03-21 09:09:07 51°23.26 2°56.1 -999 7 2.7 101120 65
2006-03-21 09:09:12 51°23.271 2°56.121 -999 6 2.7 101110 64
2006-03-21 09:09:17 51°23.28 2°56.138 -999 8 2.7 101110 64
2006-03-21 09:09:22 51°23.29 2°56.157 -999 8 2.7 101120 64
2006-03-21 09:09:27 51°23.299 2°56.176 -999 10 2.7 101120 64
2006-03-21 09:09:32 51°23.31 2°56.195 -999 9 2.7 101120 64
2006-03-21 09:09:37 51°23.321 2°56.214 -999 11 2.7 101120 64
2006-03-21 09:09:42 51°23.332 2°56.231 -999 7 2.7 101120 64
2006-03-21 09:09:47 51°23.343 2°56.251 -999 5 2.7 101120 64
2006-03-21 09:09:52 51°23.353 2°56.27 -999 3 2.7 101130 64
2006-03-21 09:09:57 51°23.364 2°56.29 -999 6 2.7 101130 64
2006-03-21 09:10:02 51°23.374 2°56.309 -999 13 2.7 101130 64
2006-03-21 09:10:07 51°23.385 2°56.33 -999 8 2.7 101130 64
2006-03-21 09:10:12 51°23.394 2°56.346 -999 10 2.7 101130 64
2006-03-21 09:10:17 51°23.405 2°56.366 -999 16 2.7 101130 64
2006-03-21 09:10:22 51°23.415 2°56.383 -999 16 2.7 101140 65
2006-03-21 09:10:27 51°23.426 2°56.403 -999 14 2.7 101140 65
2006-03-21 09:10:32 51°23.437 2°56.422 -999 15 2.7 101130 65
2006-03-21 09:10:37 51°23.448 2°56.439 -999 13 2.7 101130 65
2006-03-21 09:10:42 51°23.457 2°56.457 -999 15 2.7 101130 64
2006-03-21 09:10:47 51°23.468 2°56.477 -999 15 2.7 101130 64
2006-03-21 09:10:52 51°23.477 2°56.496 -999 12 2.7 101110 64
2006-03-21 09:10:57 51°23.488 2°56.515 -999 14 2.7 101110 64
2006-03-21 09:11:02 51°23.498 2°56.533 -999 14 2.7 101120 64
2006-03-21 09:11:07 51°23.509 2°56.552 -999 8 2.7 101120 64
2006-03-21 09:11:12 51°23.52 2°56.571 -999 7 2.7 101110 64
2006-03-21 09:11:17 51°23.531 2°56.589 -999 5 2.7 101110 64
2006-03-21 09:11:22 51°23.541 2°56.609 -999 13 2.7 101130 64
2006-03-21 09:11:27 51°23.552 2°56.627 -999 16 2.7 101130 64
2006-03-21 09:11:32 51°23.562 2°56.647 -999 7 2.7 101130 64
2006-03-21 09:11:37 51°23.572 2°56.666 -999 12 2.7 101130 64
2006-03-21 09:11:42 51°23.582 2°56.686 -999 12 2.8 101120 65
2006-03-21 09:11:47 51°23.591 2°56.707 -999 15 2.8 101120 65
2006-03-21 09:11:52 51°23.601 2°56.724 -999 9 2.8 101130 65